Location: Olsztyn
(53.7767°N, 20.4765°E)
Time: 05:05:17
(UTC+02:00)

BlueWalker 3 - Pass Details

Date: 05 June 2024
Orbit: 480 x 494 km, 53.2° (Epoch: 18 June)

Event Time Altitude Azimuth Distance (km) Brightness Sun altitude
Exits shadow 02:36:20 - 171° (S) 1,800 4.3 -9.4°
Reaches altitude 10° 02:37:02 10° 162° (SSE) 1,652 4.2 -9.3°
Maximum altitude 02:38:41 13° 136° (SE) 1,499 4.2 -9.2°
Drops below altitude 10° 02:40:21 10° 109° (ESE) 1,658 4.7 -9.1°
Sets 02:43:33 0° 80° (E) 2,543 6.1 -8.9°
